sat.trackr.live / text

‹ back to catalog

2023-048A

NORAD 56157 · 2023-048A

PAYLOAD ACTIVE UNKNOWN

§ Identity

Operator
Country
PRC
Launch date
2023-03-31
Launch site
JSC
Launch vehicle
Mass (kg)
RCS (m²)

External: N2YO · Heavens-Above · Gunter

§ Orbital elements

Epoch: 2026-09-21T22:28:39.615168Z

Period
107.03 min
Inclination
63.4009°
Eccentricity
0.0075757
Mean motion
13.45395302 rev/d
Perigee alt
1,032.7 km
Apogee alt
1,145.8 km
Semi-major
7,467.4 km
B*
3.4247e-5
RAAN
209.8478°
Arg perigee
356.1863°
Mean anomaly
3.8577°
Rev number
17,095

§ Raw data

2023-048A1 56157U 23048A   26264.93656962 -.00000070  00000+0  34247-4 0  99982 56157  63.4009 209.8478 0075757 356.1863   3.8577 13.45395302170956

JSON: /api/v1/satellites/56157 · /tle

For live sub-satellite position, see the globe view (requires WebGL).

§ Visibility from observer

Set your observer location to see the next 7 days of passes ≥ 10°. The values pass through the URL so the page stays shareable.

No JS? Fill the form by hand. The geolocation button needs JavaScript.